Conejos, Valles Caldera, New Mexico Weather observations

Data are for 10 minute period ending at time listed.
 Day   Time   Solar   Ave.   Ave.  Ave.  Vector  Max.   Baro.   Total    
  of    of     Rad.   Air    Rel.  Wind   Wind   Wind  Press.  Precip.   
Year   Day            Temp.  Hum.  Speed  Dir.   Gust                    
2016   (MST)  Kw/m2    F      %     mph   deg.    mph    mb.     in.     
-------------------------------------------------------------------------
 271   11:30   0.39   58.8    24    0.0     0     0.0   99999.0    0.00 
 271   11:40   0.45   59.4    24    0.0     0     0.0   99999.0    0.00 
 271   11:50   0.74   60.6    24    0.0     0     0.0   99999.0    0.00 
 271   12:00   0.73   60.8    23    0.0     0     0.0   99999.0    0.00 
 271   12:10   0.74   61.3    21    0.0     0     0.0   99999.0    0.00 
 271   12:20   0.54   60.2    20    0.0     0     0.0   99999.0    0.00 
 271   12:30   0.65   62.4    19    0.0     0     0.0   99999.0    0.00 
 271   12:40   0.69   61.8    19    0.0     0     0.0   99999.0    0.00 
 271   12:50   0.60   62.7    17    0.0     0     0.0   99999.0    0.00 
 271   13:00   0.51   61.7    17    0.0     0     0.0   99999.0    0.00 
 271   13:10   0.63   62.2    17    0.0     0     0.0   99999.0    0.00 
 271   13:20   0.32   61.1    20    0.0     0     0.0   99999.0    0.00 
 271   13:30   0.05   62.0    21    0.0     0     0.0   99999.0    0.00 
 271   13:40   0.04   62.8    19    0.0     0     0.0   99999.0    0.00 
 271   13:50   0.04   62.7    17    0.0     0     0.0   99999.0    0.00 
 271   14:00   0.04   63.1    18    0.0     0     0.0   99999.0    0.00 
 271   14:10   0.04   63.6    17    0.0     0     0.0   99999.0    0.00 
 271   14:20   0.04   62.7    18    0.0     0     0.0   99999.0    0.00 
 271   14:30   0.10   63.0    18    0.0     0     0.0   99999.0    0.00 
 271   14:40   0.07   62.7    18    0.0     0     0.0   99999.0    0.00 
 271   14:50   0.21   62.7    17    0.0     0     0.0   99999.0    0.00 
 271   15:00   0.22   62.1    16    0.0     0     0.0   99999.0    0.00 
 271   15:10   0.04   62.6    15    0.0     0     0.0   99999.0    0.00 
 271   15:20   0.03   61.8    15    0.0     0     0.0   99999.0    0.00 
 271   15:30   0.03   61.4    15    0.0     0     0.0   99999.0    0.00 
 271   15:40   0.04   61.7    14    0.0     0     0.0   99999.0    0.00 
 271   15:50   0.04   61.5    14    0.0     0     0.0   99999.0    0.00 
 271   16:00   0.03   61.3    15    0.0     0     0.0   99999.0    0.00 
 271   16:10   0.06   61.0    15    0.0     0     0.0   99999.0    0.00 
 271   16:20   0.02   60.7    15    0.0     0     0.0   99999.0    0.00 
 271   16:30   0.03   60.2    15    0.0     0     0.0   99999.0    0.00 
 271   16:40   0.02   59.6    16    0.0     0     0.0   99999.0    0.00 
 271   16:50   0.02   59.1    16    0.0     0     0.0   99999.0    0.00 
 271   17:00   0.01   58.9    17    0.0     0     0.0   99999.0    0.00 
 271   17:10   0.01   58.3    18    0.0     0     0.0   99999.0    0.00 
 271   17:20   0.01   58.0    18    0.0     0     0.0   99999.0    0.00 
 271   17:30   0.01   57.5    18    0.0     0     0.0   99999.0    0.00 
 271   17:40   0.01   56.6    19    0.0     0     0.0   99999.0    0.00 
 271   17:50   0.00   55.6    20    0.0     0     0.0   99999.0    0.00 
 271   18:00   0.00   54.8    20    0.0     0     0.0   99999.0    0.00 
 271   18:10   0.00   54.1    21    0.0     0     0.0   99999.0    0.00 
 271   18:20   0.00   53.0    22    0.0     0     0.0   99999.0    0.00 
 271   18:30   0.00   51.7    23    0.0     0     0.0   99999.0    0.00 
 271   18:40   0.00   50.7    24    0.0     0     0.0   99999.0    0.00 
 271   18:50   0.00   50.3    24    0.0     0     0.0   99999.0    0.00 
 271   19:00   0.00   49.7    25    0.0     0     0.0   99999.0    0.00 
 271   19:10   0.00   49.2    25    0.0     0     0.0   99999.0    0.00 
 271   19:20   0.00   49.3    25    0.0     0     0.0   99999.0    0.00 
 271   19:30   0.00   49.2    25    0.0     0     0.0   99999.0    0.00 
 271   19:40   0.00   48.7    26    0.0     0     0.0   99999.0    0.00 
 271   19:50   0.00   48.5    26    0.0     0     0.0   99999.0    0.00 
 271   20:00   0.00   48.6    26    0.0     0     0.0   99999.0    0.00 
 271   20:10   0.00   48.5    26    0.0     0     0.0   99999.0    0.00 
 271   20:20   0.00   48.2    27    0.0     0     0.0   99999.0    0.00 
 271   20:30   0.00   48.2    27    0.0     0     0.0   99999.0    0.00 
 271   20:40   0.00   47.8    27    0.0     0     0.0   99999.0    0.00 
 271   20:50   0.00   47.7    29    0.0     0     0.0   99999.0    0.00 
 271   21:00   0.00   47.8    30    0.0     0     0.0   99999.0    0.00 
 271   21:10   0.00   47.0    31    0.0     0     0.0   99999.0    0.00 
 271   21:20   0.00   46.6    36    0.0     0     0.0   99999.0    0.00 
 271   21:30   0.00   46.8    38    0.0     0     0.0   99999.0    0.00 
 271   21:40   0.00   47.1    39    0.0     0     0.0   99999.0    0.00 
 271   21:50   0.00   47.0    42    0.0     0     0.0   99999.0    0.00 
 271   22:00   0.00   47.1    45    0.0     0     0.0   99999.0    0.00 
 271   22:10   0.00   47.2    46    0.0     0     0.0   99999.0    0.00 
 271   22:20   0.00   46.8    47    0.0     0     0.0   99999.0    0.00 
 271   22:30   0.00   46.5    48    0.0     0     0.0   99999.0    0.00 
 271   22:40   0.00   46.3    49    0.0     0     0.0   99999.0    0.00 
 271   22:50   0.00   46.4    50    0.0     0     0.0   99999.0    0.00 
 271   23:00   0.00   46.5    50    0.0     0     0.0   99999.0    0.00 
 271   23:10   0.00   46.4    51    0.0     0     0.0   99999.0    0.00 
 271   23:20   0.00   45.9    53    0.0     0     0.0   99999.0    0.00 
 271   23:30   0.00   45.6    54    0.0     0     0.0   99999.0    0.00 
 271   23:40   0.00   45.5    56    0.0     0     0.0   99999.0    0.00 
 271   23:50   0.00   46.2    56    0.0     0     0.0   99999.0    0.00 
 272    0:00   0.00   46.5    55    0.0     0     0.0   99999.0    0.00 
 272    0:10   0.00   46.2    56    0.0     0     0.0   99999.0    0.00 
 272    0:20   0.00   46.3    57    0.0     0     0.0   99999.0    0.00 
 272    0:30   0.00   46.2    57    0.0     0     0.0   99999.0    0.00 
 272    0:40   0.00   45.8    59    0.0     0     0.0   99999.0    0.00 
 272    0:50   0.00   45.6    59    0.0     0     0.0   99999.0    0.00 
 272    1:00   0.00   45.3    60    0.0     0     0.0   99999.0    0.00 
 272    1:10   0.00   45.3    60    0.0     0     0.0   99999.0    0.00 
 272    1:20   0.00   45.0    59    0.0     0     0.0   99999.0    0.00 
 272    1:30   0.00   44.9    59    0.0     0     0.0   99999.0    0.00 
 272    1:40   0.00   45.0    59    0.0     0     0.0   99999.0    0.00 
 272    1:50   0.00   45.0    59    0.0     0     0.0   99999.0    0.00 
 272    2:00   0.00   44.8    60    0.0     0     0.0   99999.0    0.00 
 272    2:10   0.00   44.5    61    0.0     0     0.0   99999.0    0.00 
 272    2:20   0.00   44.6    62    0.0     0     0.0   99999.0    0.00 
 272    2:30   0.00   44.9    62    0.0     0     0.0   99999.0    0.00 
 272    2:40   0.00   44.4    62    0.0     0     0.0   99999.0    0.00 
 272    2:50   0.00   44.6    62    0.0     0     0.0   99999.0    0.00 
 272    3:00   0.00   47.2    56    0.0     0     0.0   99999.0    0.00 
 272    3:10   0.00   46.7    54    0.0     0     0.0   99999.0    0.00 
 272    3:20   0.00   46.4    56    0.0     0     0.0   99999.0    0.00 
 272    3:30   0.00   47.2    54    0.0     0     0.0   99999.0    0.00 
 272    3:40   0.00   47.7    54    0.0     0     0.0   99999.0    0.00 
 272    3:50   0.00   48.0    52    0.0     0     0.0   99999.0    0.00 
 272    4:00   0.00   48.5    51    0.0     0     0.0   99999.0    0.00 
 272    4:10   0.00   48.8    50    0.0     0     0.0   99999.0    0.00 
 272    4:20   0.00   48.9    51    0.0     0     0.0   99999.0    0.00 
 272    4:30   0.00   48.7    52    0.0     0     0.0   99999.0    0.00 
 272    4:40   0.00   48.7    53    0.0     0     0.0   99999.0    0.00 
 272    4:50   0.00   48.3    53    0.0     0     0.0   99999.0    0.00 
 272    5:00   0.00   46.9    56    0.0     0     0.0   99999.0    0.00 
 272    5:10   0.00   46.2    59    0.0     0     0.0   99999.0    0.00 
 272    5:20   0.00   45.6    61    0.0     0     0.0   99999.0    0.00 
 272    5:30   0.00   45.2    63    0.0     0     0.0   99999.0    0.00 
 272    5:40   0.00   45.2    63    0.0     0     0.0   99999.0    0.00 
 272    5:50   0.00   45.5    63    0.0     0     0.0   99999.0    0.00 
 272    6:00   0.00   45.7    62    0.0     0     0.0   99999.0    0.00 
 272    6:10   0.00   45.8    61    0.0     0     0.0   99999.0    0.00 
 272    6:20   0.01   46.0    60    0.0     0     0.0   99999.0    0.00 
 272    6:30   0.02   46.3    59    0.0     0     0.0   99999.0    0.00 
 272    6:40   0.05   47.2    57    0.0     0     0.0   99999.0    0.00 
 272    6:50   0.10   48.3    56    0.0     0     0.0   99999.0    0.00 
 272    7:00   0.06   49.7    53    0.0     0     0.0   99999.0    0.00 
 272    7:10   0.07   50.7    53    0.0     0     0.0   99999.0    0.00 
 272    7:20   0.06   52.2    52    0.0     0     0.0   99999.0    0.00 
 272    7:30   0.05   52.9    52    0.0     0     0.0   99999.0    0.00 
 272    7:40   0.04   53.3    51    0.0     0     0.0   99999.0    0.00 
 272    7:50   0.09   52.9    52    0.0     0     0.0   99999.0    0.00 
 272    8:00   0.10   54.0    50    0.0     0     0.0   99999.0    0.00 
 272    8:10   0.15   54.7    48    0.0     0     0.0   99999.0    0.00 
 272    8:20   0.29   56.0    47    0.0     0     0.0   99999.0    0.00 
 272    8:30   0.44   57.3    44    0.0     0     0.0   99999.0    0.00 
 272    8:40   0.47   58.7    41    0.0     0     0.0   99999.0    0.00 
 272    8:50   0.40   59.6    38    0.0     0     0.0   99999.0    0.00 
 272    9:00   0.09   60.0    34    0.0     0     0.0   99999.0    0.00 
 272    9:10   0.07   60.6    31    0.0     0     0.0   99999.0    0.00 
 272    9:20   0.09   61.5    29    0.0     0     0.0   99999.0    0.00 
 272    9:30   0.10   61.5    33    0.0     0     0.0   99999.0    0.00 
 272    9:40   0.06   60.8    38    0.0     0     0.0   99999.0    0.00 
 272    9:50   0.22   60.9    36    0.0     0     0.0   99999.0    0.00 
 272   10:00   0.62   61.4    35    0.0     0     0.0   99999.0    0.00 
 272   10:10   0.52   62.1    28    0.0     0     0.0   99999.0    0.00 
 272   10:20   0.57   64.1    24    0.0     0     0.0   99999.0    0.00 
 272   10:30   0.62   64.5    22    0.0     0     0.0   99999.0    0.00 
 272   10:40   0.66   64.8    21    0.0     0     0.0   99999.0    0.00 
 272   10:50   0.69   65.6    19    0.0     0     0.0   99999.0    0.00 
 272   11:00   0.69   66.1    19    0.0     0     0.0   99999.0    0.00 
 272   11:10   0.66   65.5    19    0.0     0     0.0   99999.0    0.00 
 272   11:20   0.64   65.9    18    0.0     0     0.0   99999.0    0.00 

Return to Conejos, Valles Caldera graphs page.


Western Regional Climate Center,wrcc@dri.edu